Voltar ao catálogo

COSMOS 2509

AtivoNavegaçãoPO
NORAD 40922·PAYLOAD·🇷🇺 Russia

Lançado Sep 23, 2015 de Plesetsk Cosmodrome

Loading…

Próximas Passagens (próximas 24 horas)

TLE

AtualizadoSource: Space-Track

Época: Sep 14, 2026, 15:21 UTC

1 40922U 15050C   26257.63990762 -.00000051  00000-0 -44043-3 0  9998
2 40922  82.4923  22.5431 0014448 202.3861 157.6589 12.42886240497993

Acompanhe COSMOS 2509 em tempo real com AllMySat

Download on the App Store